1494792001.01,45718,17.75,74292.0,-2.23,-35.13,-35.29,0,*55
1494792002.3,45719,17.75,74290.5,-2.21,-34.95,-35.07,0,*55
1494792003.54,45720,17.75,74290.8,-2.21,-34.77,-35.01,0,*55
1494792004.78,45721,17.75,74292.3,-2.21,-34.77,-35.01,0,*54
1494792006.05,45722,17.75,74296.5,-2.21,-34.83,-35.01,0,*5C
1494792007.26,45723,17.75,74290.8,-2.19,-34.47,-34.77,0,*5E
1494792008.49,45724,17.75,74292.8,-2.19,-34.77,-35.07,0,*5C
1494792009.75,45725,17.69,74288.3,-2.19,-34.95,-35.07,0,*51
1494792011.0,45726,17.75,74298.5,-2.19,-34.83,-35.07,0,*55
1494792012.22,45727,17.75,74294.5,-2.19,-34.77,-35.01,0,*59
1494792013.46,45728,17.75,74294.8,-2.17,-34.71,-35.01,0,*5E
1494792014.67,45729,17.75,74292.5,-2.19,-34.59,-34.77,0,*5B
1494792015.9,45730,17.75,74292.5,-2.19,-34.77,-34.95,0,*53
1494792017.14,45731,17.75,74288.5,-2.19,-35.01,-35.35,0,*59
1494792018.38,45732,17.75,74286.0,-2.17,-35.01,-35.29,0,*59
1494792019.64,45733,17.75,74286.5,-2.19,-35.07,-35.35,0,*5D
1494792020.86,45734,17.75,74286.8,-2.17,-34.89,-35.13,0,*57
1494792022.13,45735,17.75,74288.5,-2.19,-34.65,-34.95,0,*55
1494792023.37,45736,17.69,74292.8,-2.17,-34.71,-35.01,0,*51
1494792024.6,45737,17.75,74298.3,-2.17,-34.89,-35.01,0,*57
1494792025.83,45738,17.75,74302.5,-2.19,-34.77,-35.07,0,*51
1494792027.07,45739,17.75,74298.3,-2.17,-34.59,-34.89,0,*55
1494792028.33,45740,17.75,74294.5,-2.17,-34.71,-34.95,0,*5C
1494792029.57,45741,17.75,74292.3,-2.17,-34.77,-35.01,0,*57
1494792030.83,45742,17.75,74290.3,-2.17,-34.71,-34.95,0,*5E
1494792032.06,45743,17.75,74292.8,-2.17,-34.89,-35.01,0,*54
1494792033.3,45744,17.75,74298.3,-2.17,-34.77,-35.01,0,*52
1494792034.54,45745,17.75,74294.8,-2.17,-34.71,-34.89,0,*54
1494792035.8,45746,17.75,74292.8,-2.17,-34.53,-34.77,0,*56
1494792037.04,45747,17.75,74292.3,-2.15,-34.59,-34.95,0,*53
1494792038.27,45748,17.75,74298.0,-2.17,-34.59,-34.89,0,*53
1494792039.51,45749,17.75,74296.8,-2.17,-34.89,-35.01,0,*5E
1494792040.72,45750,17.75,74296.8,-2.15,-34.71,-34.89,0,*52
1494792041.95,45751,17.75,74298.0,-2.17,-34.59,-34.89,0,*5B
1494792043.24,45752,17.75,74294.3,-2.13,-34.83,-34.95,0,*56
1494792044.5,45753,17.75,74294.8,-2.17,-34.95,-35.01,0,*58
1494792045.75,45754,17.75,74294.5,-2.15,-34.71,-34.95,0,*5B
1494792046.99,45755,17.75,74288.0,-2.15,-34.53,-34.77,0,*56
1494792048.21,45756,17.75,74290.0,-2.15,-34.71,-35.01,0,*55
1494792049.42,45757,17.75,74292.8,-2.15,-35.01,-35.17,0,*55
1494792050.7,45758,17.75,74288.3,-2.13,-35.07,-35.23,0,*5D
1494792051.93,45759,17.75,74294.8,-2.13,-35.13,-35.13,0,*5A
1494792053.19,45760,17.75,74294.3,-2.17,-35.29,-35.35,0,*59
1494792054.44,45761,17.75,74292.5,-2.17,-35.29,-35.53,0,*58
1494792055.7,45762,17.75,74294.0,-2.17,-34.95,-35.13,0,*59
1494792056.94,45763,17.75,74296.5,-2.17,-34.59,-34.89,0,*5A
1494792058.17,45764,17.69,74292.5,-2.17,-34.71,-34.89,0,*57
1494792059.4,45765,17.75,74294.8,-2.17,-34.89,-35.17,0,*57
1494792060.63,45766,17.75,74292.0,-2.17,-34.25,-34.59,0,*59
1494792061.88,45767,17.75,74294.8,-2.17,-34.25,-34.53,0,*52
1494792063.14,45768,17.75,74292.3,-2.13,-34.31,-34.71,0,*5C
1494792064.36,45769,17.75,74290.3,-2.15,-34.59,-35.01,0,*53
1494792065.6,45770,17.75,74290.5,-2.15,-34.71,-34.95,0,*5D
1494792066.82,45771,17.75,74286.3,-2.15,-34.77,-35.01,0,*56
1494792068.08,45772,17.75,74288.5,-2.13,-34.65,-34.89,0,*51
1494792069.3,45773,17.75,74288.0,-2.15,-34.77,-35.01,0,*54
1494792070.53,45774,17.75,74286.3,-2.13,-34.89,-35.13,0,*57
1494792071.74,45775,17.75,74286.8,-2.15,-35.13,-35.29,0,*5B
1494792073.0,45776,17.75,74284.5,-2.13,-34.95,-35.29,0,*51
1494792074.29,45777,17.75,74290.8,-2.13,-34.83,-35.07,0,*5B
1494792075.51,45778,17.75,74294.0,-2.15,-34.71,-35.01,0,*59
1494792076.77,45779,17.75,74290.5,-2.13,-34.71,-34.95,0,*52
1494792078.04,45780,17.75,74296.5,-2.13,-34.71,-34.95,0,*54
1494792079.32,45781,17.75,74292.5,-2.13,-34.95,-35.07,0,*55
1494792080.58,45782,17.75,74298.8,-2.11,-34.77,-34.83,0,*55
1494792081.86,45783,17.75,74296.0,-2.13,-34.83,-34.95,0,*5A
1494792083.13,45784,17.75,74294.5,-2.13,-34.95,-35.13,0,*55
1494792084.41,45785,17.69,74294.8,-2.13,-34.83,-34.95,0,*5C
1494792085.67,45786,17.69,74292.0,-2.13,-34.35,-34.71,0,*58
1494792086.93,45787,17.75,74298.0,-2.11,-34.59,-34.83,0,*5C
1494792088.19,45788,17.75,74292.0,-2.13,-34.65,-34.89,0,*54
1494792089.47,45789,17.75,74292.0,-2.13,-34.53,-34.83,0,*5A
1494792090.73,45790,17.75,74292.3,-2.13,-34.71,-34.95,0,*55
1494792091.99,45791,17.75,74296.3,-2.13,-34.71,-35.07,0,*5E
1494792093.26,45792,17.75,74296.0,-2.13,-34.71,-34.95,0,*57
1494792094.54,45793,17.75,74296.0,-2.13,-35.07,-35.23,0,*5A
1494792095.82,45794,17.75,74294.8,-2.13,-34.83,-35.07,0,*56
1494792097.1,45795,17.69,74290.0,-2.13,-34.95,-35.23,0,*56
1494792098.33,45796,17.75,74294.0,-2.13,-34.89,-35.13,0,*5B
1494792099.59,45797,17.75,74292.3,-2.13,-34.89,-35.07,0,*5F
1494792100.82,45798,17.75,74294.3,-2.13,-35.13,-35.29,0,*5E
1494792102.1,45799,17.75,74294.8,-2.13,-35.23,-35.41,0,*52
1494792103.33,45800,17.75,74294.8,-2.13,-34.89,-35.13,0,*5B
1494792104.62,45801,17.75,74292.3,-2.13,-34.65,-34.95,0,*57
1494792105.84,45802,17.75,74292.5,-2.15,-34.77,-35.01,0,*5D
1494792107.12,45803,17.75,74292.5,-2.13,-35.07,-35.23,0,*5C
1494792108.4,45804,17.75,74294.8,-2.13,-34.95,-35.23,0,*51
1494792109.68,45805,17.75,74298.3,-2.13,-35.07,-35.23,0,*5A
1494792110.93,45806,17.75,74292.3,-2.13,-35.13,-35.41,0,*58
1494792112.15,45807,17.75,74296.5,-2.15,-35.29,-35.47,0,*50
1494792113.4,45808,17.75,74298.8,-2.13,-35.13,-35.41,0,*56
1494792114.62,45809,17.75,74294.8,-2.15,-35.29,-35.29,0,*56
1494792115.85,45810,17.75,74290.5,-2.15,-35.17,-35.35,0,*5E
1494792117.1,45811,17.75,74292.5,-2.13,-35.29,-35.41,0,*57
1494792118.31,45812,17.75,74292.8,-2.15,-35.13,-35.17,0,*58
1494792119.52,45813,17.69,74288.3,-2.15,-34.89,-35.01,0,*5C
1494792120.75,45814,17.75,74294.3,-2.13,-35.13,-35.29,0,*55
1494792121.96,45815,17.75,74298.0,-2.15,-35.13,-35.17,0,*5F
1494792123.2,45816,17.75,74296.8,-2.13,-34.47,-34.71,0,*5B
1494792124.41,45817,17.75,74294.0,-2.15,-34.77,-35.01,0,*59
1494792125.63,45818,17.75,74294.3,-2.15,-34.89,-35.01,0,*57
1494792126.84,45819,17.75,74294.3,-2.15,-34.77,-35.01,0,*57
1494792128.1,45820,17.75,74292.3,-2.13,-34.47,-34.83,0,*53
1494792129.33,45821,17.75,74296.5,-2.15,-34.19,-34.25,0,*53
1494792130.57,45822,17.75,74290.8,-2.15,-34.35,-34.71,0,*5F
1494792131.86,45823,17.69,74290.3,-2.13,-34.65,-34.95,0,*57
1494792133.09,45824,17.75,74294.0,-2.13,-34.89,-35.13,0,*5D
1494792134.35,45825,17.75,74288.3,-2.13,-34.71,-34.95,0,*54
1494792135.59,45826,17.69,74288.3,-2.13,-34.71,-34.89,0,*5A
1494792136.87,45827,17.75,74298.0,-2.13,-34.83,-34.95,0,*5B
1494792138.07,45828,17.75,74296.3,-2.15,-34.25,-34.41,0,*57
1494792139.33,45829,17.75,74298.5,-2.13,-34.35,-34.71,0,*52
1494792140.56,45830,17.75,74298.0,-2.13,-34.47,-34.89,0,*58
1494792141.82,45831,17.75,74296.8,-2.13,-34.65,-34.71,0,*5E
1494792143.11,45832,17.69,74292.3,-2.13,-34.35,-34.53,0,*58
1494792144.32,45833,17.69,74294.5,-2.09,-34.59,-34.89,0,*5F
1494792145.6,45834,17.69,74294.5,-2.13,-34.65,-34.95,0,*51
1494792146.89,45835,17.75,74298.0,-2.13,-34.83,-35.07,0,*52
1494792148.17,45836,17.75,74296.8,-2.13,-34.53,-34.83,0,*51
1494792149.4,45837,17.75,74294.0,-2.13,-33.83,-33.95,0,*5A
1494792150.66,45838,17.75,74288.5,-2.09,-33.73,-33.77,0,*5D
1494792151.94,45839,17.75,74288.5,-2.11,-34.31,-34.65,0,*50
1494792153.15,45840,17.75,74290.8,-2.09,-34.41,-34.77,0,*53
1494792154.4,45841,17.75,74294.3,-2.11,-34.31,-34.41,0,*59
1494792155.63,45842,17.75,74294.8,-2.09,-34.59,-34.83,0,*53
1494792156.87,45843,17.75,74294.3,-2.11,-34.77,-35.01,0,*5C
1494792158.14,45844,17.75,74292.0,-2.07,-34.77,-34.95,0,*50
1494792159.42,45845,17.69,74294.8,-2.11,-34.83,-35.07,0,*57
1494792160.65,45846,17.69,74292.8,-2.09,-35.07,-35.17,0,*51
1494792161.89,45847,17.75,74296.0,-2.09,-34.83,-35.01,0,*5A
1494792163.12,45848,17.75,74292.5,-2.11,-34.89,-35.17,0,*51
1494792164.33,45849,17.75,74294.0,-2.09,-34.89,-35.01,0,*5E
1494792165.53,45850,17.75,74292.8,-2.09,-35.01,-35.17,0,*50
1494792166.77,45851,17.69,74292.8,-2.09,-35.01,-35.07,0,*50
1494792168.01,45852,17.69,74292.5,-2.11,-35.01,-35.01,0,*5C
1494792169.24,45853,17.75,74294.8,-2.09,-34.77,-34.83,0,*5F
1494792170.44,45854,17.75,74298.5,-2.09,-34.89,-35.17,0,*55
1494792171.7,45855,17.75,74294.8,-2.11,-34.89,-35.07,0,*5C
1494792172.93,45856,17.75,74296.0,-2.11,-35.01,-35.17,0,*5F
1494792174.14,45857,17.69,74292.5,-2.09,-34.77,-35.01,0,*50
1494792175.41,45858,17.75,74298.0,-2.11,-34.83,-35.01,0,*5D
1494792176.65,45859,17.75,74298.0,-2.09,-34.83,-35.01,0,*55
1494792177.93,45860,17.69,74298.3,-2.11,-35.07,-35.23,0,*5B
1494792179.21,45861,17.75,74298.5,-2.11,-35.07,-35.23,0,*5A
1494792180.44,45862,17.75,74296.5,-2.11,-34.89,-35.17,0,*59
1494792181.72,45863,17.69,74296.8,-2.11,-35.07,-35.23,0,*58
1494792183.0,45864,17.75,74296.8,-2.11,-34.83,-35.07,0,*54
1494792184.28,45865,17.69,74296.5,-2.11,-35.23,-35.35,0,*5F
1494792185.54,45866,17.69,74296.5,-2.11,-35.07,-35.17,0,*5A
1494792186.82,45867,17.69,74294.8,-2.11,-35.23,-35.41,0,*5E
1494792188.08,45868,17.69,74296.3,-2.11,-35.17,-35.41,0,*56
1494792189.36,45869,17.69,74298.8,-2.11,-35.23,-35.41,0,*50
1494792190.6,45870,17.69,74296.0,-2.11,-35.01,-35.17,0,*5B
1494792191.83,45871,17.75,74298.8,-2.13,-34.89,-35.13,0,*5D
1494792193.11,45872,17.75,74300.5,-2.13,-34.95,-35.23,0,*50
1494792194.36,45873,17.75,74296.3,-2.13,-35.13,-35.41,0,*5A
1494792195.62,45874,17.69,74296.3,-2.13,-35.23,-35.47,0,*58
1494792196.88,45875,17.69,74294.0,-2.13,-34.95,-35.13,0,*54
1494792198.16,45876,17.69,74292.0,-2.13,-34.95,-35.23,0,*54
1494792199.41,45877,17.75,74292.5,-2.13,-35.13,-35.23,0,*5A
1494792200.69,45878,17.75,74294.3,-2.13,-35.23,-35.41,0,*52
1494792201.93,45879,17.75,74298.0,-2.15,-34.95,-35.17,0,*5A
1494792203.17,45880,17.75,74298.8,-2.15,-34.95,-35.13,0,*58
1494792204.43,45881,17.69,74298.0,-2.13,-34.53,-34.89,0,*57
1494792205.71,45882,17.69,74298.0,-2.13,-34.53,-34.95,0,*59
1494792206.98,45883,17.75,74296.8,-2.13,-34.71,-34.95,0,*58
1494792208.22,45884,17.69,74296.5,-2.15,-34.95,-35.17,0,*58
1494792209.48,45885,17.75,74298.0,-2.13,-35.07,-35.29,0,*58
1494792210.73,45886,17.75,74298.5,-2.13,-35.13,-35.23,0,*54
1494792211.94,45887,17.75,74296.3,-2.15,-35.29,-35.47,0,*58
1494792213.18,45888,17.69,74296.3,-2.13,-35.13,-35.29,0,*50
1494792214.43,45889,17.69,74294.0,-2.13,-35.29,-35.41,0,*56
1494792215.68,45890,17.75,74298.8,-2.13,-35.13,-35.23,0,*53
1494792216.91,45891,17.69,74298.3,-2.15,-35.17,-35.35,0,*57
1494792218.12,45892,17.69,74296.3,-2.15,-35.13,-35.47,0,*55
1494792219.36,45893,17.75,74300.3,-2.17,-35.13,-35.29,0,*5E
1494792220.59,45894,17.75,74298.3,-2.15,-34.95,-35.17,0,*59
1494792221.81,45895,17.69,74298.8,-2.15,-35.13,-35.29,0,*5A
1494792223.04,45896,17.69,74298.5,-2.15,-35.17,-35.35,0,*50
1494792224.24,45897,17.69,74296.3,-2.15,-34.89,-35.17,0,*57
1494792225.46,45898,17.75,74300.5,-2.15,-35.13,-35.29,0,*57
1494792226.66,45899,17.69,74300.0,-2.15,-34.89,-35.13,0,*5D
1494792227.93,45900,17.69,74296.3,-2.13,-34.95,-35.13,0,*57
1494792229.14,45901,17.69,74302.8,-2.15,-35.01,-35.13,0,*5C
1494792230.35,45902,17.69,74300.0,-2.15,-34.89,-35.01,0,*5D
1494792231.62,45903,17.75,74302.5,-2.13,-34.95,-35.13,0,*54
1494792232.86,45904,17.69,74302.0,-2.15,-34.95,-35.29,0,*5C
1494792234.08,45905,17.69,74296.8,-2.15,-34.77,-35.13,0,*58
1494792235.29,45906,17.69,74296.0,-2.15,-35.01,-35.17,0,*5F
1494792236.5,45907,17.69,74298.3,-2.15,-34.89,-35.17,0,*5F
1494792237.74,45908,17.75,74296.8,-2.15,-34.95,-35.13,0,*59
1494792238.97,45909,17.69,74296.5,-2.15,-34.95,-35.17,0,*5C
1494792240.19,45910,17.69,74298.0,-2.15,-35.01,-35.17,0,*58
1494792241.45,45911,17.69,74294.0,-2.17,-35.01,-35.35,0,*5B
1494792242.66,45912,17.69,74296.5,-2.15,-34.77,-35.13,0,*5E
1494792243.88,45913,17.69,74298.3,-2.15,-34.77,-35.01,0,*5C
1494792245.1,45914,17.69,74296.3,-2.15,-34.71,-35.01,0,*5D
1494792246.32,45915,17.69,74298.3,-2.15,-34.77,-35.01,0,*5A
1494792247.56,45916,17.69,74298.5,-2.15,-34.71,-34.95,0,*53
1494792248.78,45917,17.69,74298.3,-2.15,-34.89,-35.13,0,*5A
1494792249.98,45918,17.69,74296.0,-2.15,-34.89,-35.13,0,*55
1494792251.2,45919,17.75,74302.5,-2.15,-34.77,-35.17,0,*51
1494792252.46,45920,17.75,74300.5,-2.13,-34.71,-35.07,0,*5A
1494792253.7,45921,17.69,74300.8,-2.15,-34.95,-35.29,0,*5B
1494792254.92,45922,17.69,74298.3,-2.15,-35.13,-35.29,0,*57
1494792256.17,45923,17.69,74298.3,-2.13,-35.13,-35.35,0,*5D
1494792257.41,45924,17.75,74300.0,-2.15,-34.95,-35.29,0,*5E
1494792258.63,45925,17.69,74298.0,-2.15,-35.01,-35.29,0,*53
1494792259.84,45926,17.69,74300.3,-2.15,-35.17,-35.47,0,*5F
1494792261.05,45927,17.69,74300.5,-2.15,-35.17,-35.47,0,*5E
1494792262.26,45928,17.69,74298.8,-2.15,-35.17,-35.47,0,*51
1494792263.49,45929,17.75,74302.8,-2.15,-35.13,-35.35,0,*51
1494792264.73,45930,17.69,74296.8,-2.15,-35.01,-35.35,0,*5A
1494792265.95,45931,17.75,74298.8,-2.15,-35.01,-35.29,0,*56
1494792267.16,45932,17.75,74302.5,-2.15,-35.01,-35.17,0,*58
1494792268.37,45933,17.69,74300.8,-2.15,-35.13,-35.47,0,*5F
1494792269.6,45934,17.69,74302.3,-2.17,-34.89,-35.13,0,*59
1494792270.83,45935,17.69,74302.3,-2.17,-34.89,-35.17,0,*5C
1494792272.05,45936,17.69,74302.0,-2.15,-34.77,-35.01,0,*5B
1494792273.26,45937,17.69,74302.0,-2.15,-34.89,-35.13,0,*58
1494792274.48,45938,17.69,74300.3,-2.17,-34.89,-35.13,0,*55
1494792275.74,45939,17.69,74300.0,-2.17,-35.17,-35.53,0,*56
1494792277.0,45940,17.69,74300.5,-2.17,-34.95,-35.29,0,*5E
1494792278.26,45941,17.69,74300.0,-2.17,-34.95,-35.17,0,*52
1494792279.49,45942,17.69,74302.5,-2.17,-34.89,-35.13,0,*58
1494792280.7,45943,17.69,74300.3,-2.15,-34.89,-35.13,0,*5B
1494792281.92,45944,17.69,74298.0,-2.15,-34.77,-35.01,0,*5E
1494792283.15,45945,17.69,74302.0,-2.17,-34.77,-35.13,0,*5E
1494792284.4,45946,17.69,74298.3,-2.17,-34.19,-34.41,0,*53
1494792285.66,45947,17.69,74298.3,-2.17,-34.25,-34.53,0,*5E
1494792286.86,45948,17.69,74300.0,-2.15,-34.41,-34.71,0,*51
1494792288.07,45949,17.69,74298.5,-2.15,-34.41,-34.71,0,*50
1494792289.32,45950,17.69,74298.0,-2.15,-34.71,-34.95,0,*51
1494792290.53,45951,17.69,74300.0,-2.15,-34.89,-35.13,0,*58
1494792291.77,45952,17.69,74300.0,-2.15,-34.95,-35.13,0,*56
1494792293.01,45953,17.69,74298.5,-2.15,-34.59,-34.95,0,*58
1494792294.27,45954,17.69,74298.5,-2.13,-34.19,-34.47,0,*52
1494792295.55,45955,17.75,74300.8,-2.13,-34.19,-34.35,0,*56
1494792296.78,45956,17.69,74300.3,-2.13,-33.83,-34.13,0,*55
1494792298.01,45957,17.69,74298.3,-2.11,-34.25,-34.47,0,*5C
1494792299.3,45958,17.69,74296.0,-2.11,-34.31,-34.65,0,*56
1494792300.55,45959,17.75,74300.5,-2.11,-34.31,-34.59,0,*58
1494792301.78,45960,17.69,74292.3,-2.11,-34.25,-34.59,0,*57
1494792303.07,45961,17.69,74296.0,-2.11,-34.31,-34.65,0,*5C
1494792304.28,45962,17.69,74294.0,-2.09,-34.59,-34.89,0,*5A
1494792305.51,45963,17.69,74294.8,-2.09,-34.77,-35.07,0,*50
1494792306.72,45964,17.69,74294.0,-2.09,-34.47,-34.89,0,*53
1494792307.95,45965,17.69,74294.3,-2.09,-34.31,-34.59,0,*5E
1494792309.16,45966,17.69,74296.0,-2.09,-34.13,-34.47,0,*52
1494792310.37,45967,17.69,74292.5,-2.09,-34.25,-34.59,0,*59
1494792311.61,45968,17.69,74294.3,-2.07,-34.77,-35.01,0,*53
1494792312.88,45969,17.69,74296.8,-2.07,-34.59,-34.95,0,*52
1494792314.11,45970,17.69,74296.3,-2.09,-34.77,-35.07,0,*52
1494792315.34,45971,17.69,74298.0,-2.09,-35.17,-35.41,0,*56
1494792316.57,45972,17.69,74298.5,-2.09,-35.17,-35.41,0,*55
1494792317.85,45973,17.69,74294.5,-2.11,-35.23,-35.41,0,*5A
1494792319.14,45974,17.69,74294.8,-2.11,-35.07,-35.41,0,*5B
1494792320.39,45975,17.69,74292.3,-2.09,-35.07,-35.35,0,*50
1494792321.66,45976,17.69,74298.3,-2.11,-35.01,-35.35,0,*5C
1494792322.89,45977,17.69,74296.3,-2.09,-35.01,-35.23,0,*53
1494792324.14,45978,17.69,74294.5,-2.11,-35.17,-35.41,0,*56
1494792325.4,45979,17.69,74296.0,-2.11,-35.23,-35.59,0,*59
1494792326.68,45980,17.75,74298.8,-2.11,-35.23,-35.53,0,*55
1494792327.94,45981,17.69,74298.8,-2.11,-35.01,-35.35,0,*54
1494792329.18,45982,17.69,74298.3,-2.11,-34.77,-35.01,0,*50
1494792330.43,45983,17.69,74294.0,-2.11,-34.89,-35.07,0,*56
1494792331.67,45984,17.75,74300.0,-2.13,-35.13,-35.29,0,*5D
1494792332.92,45985,17.69,74296.0,-2.13,-35.13,-35.41,0,*52
1494792334.15,45986,17.69,74296.8,-2.13,-35.29,-35.47,0,*5E
1494792335.39,45987,17.69,74298.0,-2.13,-35.29,-35.47,0,*5F
1494792336.62,45988,17.69,74296.5,-2.13,-35.13,-35.29,0,*51
1494792337.88,45989,17.69,74294.0,-2.13,-35.13,-35.41,0,*5E
1494792339.16,45990,17.69,74298.3,-2.11,-35.07,-35.35,0,*52
1494792340.44,45991,17.69,74296.0,-2.13,-35.23,-35.41,0,*54
1494792341.7,45992,17.69,74294.0,-2.13,-35.07,-35.29,0,*5F
1494792342.92,45993,17.69,74296.3,-2.15,-35.01,-35.17,0,*53
1494792344.15,45994,17.69,74292.8,-2.13,-35.13,-35.29,0,*5C
1494792345.39,45995,17.69,74296.8,-2.15,-35.29,-35.41,0,*5C
1494792346.62,45996,17.69,74302.5,-2.13,-35.13,-35.47,0,*56
1494792347.88,45997,17.69,74302.3,-2.13,-34.71,-35.07,0,*56
1494792349.12,45998,17.69,74302.0,-2.15,-34.59,-34.95,0,*5F
1494792350.41,45999,17.69,74302.0,-2.13,-34.35,-34.65,0,*5D
1494792351.69,46000,17.69,74296.5,-2.13,-34.35,-34.53,0,*52
1494792352.94,46001,17.69,74296.3,-2.13,-34.13,-34.35,0,*57
1494792354.18,46002,17.69,74296.8,-2.11,-34.25,-34.47,0,*56
1494792355.44,46003,17.69,74296.3,-2.11,-34.47,-34.83,0,*5B
1494792356.72,46004,17.69,74294.3,-2.11,-34.65,-34.83,0,*5C
1494792357.96,46005,17.69,74296.8,-2.11,-34.77,-35.01,0,*55
1494792359.23,46006,17.69,74298.8,-2.11,-34.65,-35.01,0,*55
1494792360.51,46007,17.69,74294.3,-2.11,-34.83,-35.07,0,*5A
1494792361.77,46008,17.69,74292.0,-2.11,-34.83,-35.17,0,*54
1494792363.05,46009,17.69,74290.0,-2.11,-34.83,-35.07,0,*54
1494792364.32,46010,17.69,74294.3,-2.11,-34.83,-35.01,0,*5A
1494792365.58,46011,17.69,74296.5,-2.11,-35.01,-35.07,0,*56
1494792366.86,46012,17.69,74292.8,-2.11,-35.07,-35.35,0,*52
1494792368.12,46013,17.69,74294.8,-2.11,-35.01,-35.07,0,*54
1494792369.41,46014,17.69,74294.8,-2.11,-34.83,-35.07,0,*58
1494792370.64,46015,17.69,74298.5,-2.11,-34.89,-35.17,0,*52
1494792371.89,46016,17.69,74298.5,-2.13,-34.89,-35.23,0,*54
1494792373.17,46017,17.69,74296.8,-2.13,-34.83,-35.07,0,*59
1494792374.42,46018,17.69,74298.5,-2.11,-34.89,-35.07,0,*5E
1494792375.62,46019,17.69,74296.0,-2.09,-34.89,-35.17,0,*57
1494792376.86,46020,17.69,74296.0,-2.11,-34.89,-35.01,0,*53
1494792378.14,46021,17.69,74292.3,-2.11,-34.83,-35.07,0,*5E
1494792379.4,46022,17.69,74298.5,-2.11,-34.89,-35.07,0,*57
1494792380.63,46023,17.69,74296.3,-2.11,-35.01,-35.17,0,*56
1494792381.87,46024,17.69,74294.0,-2.11,-34.77,-35.01,0,*56
1494792383.12,46025,17.69,74290.8,-2.11,-34.89,-35.07,0,*50
1494792384.39,46026,17.69,74290.0,-2.11,-34.83,-35.01,0,*5F
1494792385.67,46027,17.69,74290.5,-2.11,-35.07,-35.23,0,*53
1494792386.94,46028,17.69,74288.5,-2.11,-34.83,-35.01,0,*51
1494792388.17,46029,17.69,74288.0,-2.09,-34.59,-34.83,0,*55
1494792389.43,46030,17.69,74286.5,-2.11,-35.01,-35.07,0,*55
1494792390.66,46031,17.69,74294.0,-2.09,-34.89,-35.07,0,*5C
1494792391.94,46032,17.69,74292.3,-2.11,-35.07,-35.23,0,*57
1494792393.22,46033,17.69,74298.0,-2.11,-34.83,-35.07,0,*5D
1494792394.51,46034,17.69,74296.3,-2.11,-34.65,-34.83,0,*5F
1494792395.76,46035,17.69,74298.0,-2.11,-34.59,-34.83,0,*51
1494792397.05,46036,17.69,74296.8,-2.11,-34.65,-34.83,0,*5D
1494792398.26,46037,17.69,74296.8,-2.09,-34.77,-34.89,0,*5C
1494792399.49,46038,17.69,74302.8,-2.09,-35.01,-35.23,0,*52
1494792400.75,46039,17.69,74296.8,-2.11,-34.47,-34.65,0,*5A
1494792402.01,46040,17.69,74296.8,-2.11,-34.65,-34.89,0,*56
1494792403.28,46041,17.69,74298.5,-2.11,-34.83,-35.01,0,*5E
1494792404.51,46042,17.69,74300.8,-2.09,-34.59,-34.83,0,*58
1494792405.72,46043,17.69,74302.8,-2.09,-34.77,-34.89,0,*5F
1494792406.95,46044,17.69,74300.0,-2.11,-34.89,-35.01,0,*51
1494792408.24,46045,17.69,74298.8,-2.11,-34.83,-35.07,0,*5C
1494792409.44,46046,17.75,74300.5,-2.09,-34.59,-34.89,0,*56
1494792410.68,46047,17.69,74300.5,-2.09,-34.47,-34.83,0,*52
1494792411.91,46048,17.69,74296.5,-2.09,-34.77,-35.07,0,*53
1494792413.15,46049,17.69,74296.8,-2.09,-34.47,-34.65,0,*54
1494792414.39,46050,17.69,74298.3,-2.09,-34.31,-34.47,0,*5D
1494792415.62,46051,17.69,74300.3,-2.09,-34.31,-34.47,0,*5C
1494792416.84,46052,17.69,74298.8,-2.09,-34.47,-34.77,0,*5D
1494792418.04,46053,17.69,74302.3,-2.09,-34.89,-35.17,0,*59
1494792419.28,46054,17.69,74298.5,-2.07,-34.77,-35.01,0,*56
1494792420.55,46055,17.69,74298.5,-2.07,-34.95,-35.29,0,*51
1494792421.8,46056,17.69,74298.0,-2.07,-35.01,-35.29,0,*5E
1494792423.06,46057,17.69,74298.0,-2.07,-34.95,-35.17,0,*5E
1494792424.32,46058,17.69,74292.5,-2.07,-35.01,-35.35,0,*5D
1494792425.56,46059,17.69,74300.8,-2.07,-35.13,-35.29,0,*52
1494792426.8,46060,17.69,74296.8,-2.07,-35.13,-35.47,0,*50
1494792428.03,46061,17.69,74298.8,-2.07,-35.13,-35.47,0,*51
1494792429.26,46062,17.69,74296.0,-2.09,-35.17,-35.53,0,*5D
1494792430.49,46063,17.69,74294.8,-2.09,-35.23,-35.59,0,*51
1494792431.74,46064,17.69,74298.8,-2.11,-35.17,-35.53,0,*52
1494792432.99,46065,17.69,74296.8,-2.09,-35.07,-35.23,0,*5C
1494792434.26,46066,17.69,74300.0,-2.11,-34.65,-35.01,0,*53
1494792435.49,46067,17.69,74306.0,-2.09,-34.83,-35.17,0,*54
1494792436.76,46068,17.69,74298.5,-2.11,-34.65,-35.01,0,*5D
1494792437.97,46069,17.69,74298.3,-2.09,-34.59,-34.89,0,*5B
1494792439.2,46070,17.69,74296.0,-2.09,-34.65,-34.89,0,*5C
1494792440.43,46071,17.69,74298.0,-2.09,-35.01,-35.23,0,*5F
1494792441.66,46072,17.69,74298.8,-2.09,-35.01,-35.23,0,*5C
1494792442.9,46073,17.69,74296.3,-2.09,-35.01,-35.35,0,*5A
1494792444.12,46074,17.69,74296.5,-2.09,-34.89,-35.23,0,*5B
1494792445.38,46075,17.69,74296.0,-2.09,-35.23,-35.41,0,*5F
1494792446.61,46076,17.69,74300.5,-2.09,-35.23,-35.59,0,*55
1494792447.86,46077,17.69,74298.3,-2.11,-35.17,-35.41,0,*53
1494792449.1,46078,17.69,74296.5,-2.09,-35.01,-35.41,0,*52
1494792450.36,46079,17.69,74300.5,-2.09,-35.07,-35.41,0,*55
1494792451.6,46080,17.69,74302.0,-2.07,-34.77,-35.01,0,*5F
1494792452.84,46081,17.69,74300.0,-2.09,-34.47,-34.83,0,*58
1494792454.1,46082,17.69,74300.5,-2.09,-34.31,-34.65,0,*52
1494792455.3,46083,17.69,74300.8,-2.09,-34.59,-34.89,0,*5F
1494792456.52,46084,17.69,74302.0,-2.09,-34.77,-35.01,0,*55
1494792457.78,46085,17.69,74302.3,-2.07,-35.01,-35.35,0,*5D
1494792459.04,46086,17.69,74300.5,-2.09,-35.07,-35.35,0,*56
1494792460.3,46087,17.69,74302.5,-2.09,-35.07,-35.23,0,*50
1494792461.53,46088,17.69,74304.0,-2.09,-35.01,-35.23,0,*59
1494792462.73,46089,17.69,74300.8,-2.09,-34.89,-35.17,0,*5E
1494792463.98,46090,17.69,74302.5,-2.09,-35.07,-35.23,0,*56
1494792465.24,46091,17.69,74300.3,-2.09,-35.23,-35.53,0,*56
1494792466.47,46092,17.69,74302.0,-2.09,-35.01,-35.23,0,*52
1494792467.75,46093,17.69,74298.3,-2.11,-35.23,-35.53,0,*5D
1494792468.98,46094,17.69,74298.5,-2.09,-35.35,-35.59,0,*5E
1494792470.24,46095,17.69,74300.8,-2.09,-35.07,-35.41,0,*57
1494792471.45,46096,17.69,74300.3,-2.09,-34.77,-35.17,0,*51
1494792472.73,46097,17.69,74294.5,-2.11,-35.07,-35.35,0,*5F
1494792473.96,46098,17.69,74296.3,-2.09,-35.23,-35.59,0,*55
1494792475.21,46099,17.69,74298.3,-2.11,-34.89,-35.23,0,*51
1494792476.41,46100,17.69,74302.8,-2.09,-34.89,-35.17,0,*5E
1494792477.64,46101,17.69,74306.3,-2.09,-34.83,-35.17,0,*55
1494792478.9,46102,17.69,74298.5,-2.09,-34.83,-35.23,0,*51
1494792480.16,46103,17.69,74296.0,-2.09,-35.07,-35.35,0,*5A
1494792481.41,46104,17.69,74294.3,-2.09,-34.83,-35.07,0,*51
1494792482.62,46105,17.69,74288.5,-2.09,-34.59,-34.89,0,*50
1494792483.88,46106,17.69,74288.0,-2.09,-34.83,-35.07,0,*53
1494792485.12,46107,17.69,74290.5,-2.07,-34.77,-35.01,0,*51
1494792486.37,46108,17.69,74294.5,-2.07,-35.01,-35.29,0,*54
1494792487.6,46109,17.69,74300.3,-2.05,-34.59,-34.83,0,*5A
1494792488.87,46110,17.69,74298.3,-2.07,-34.83,-35.17,0,*5B
1494792490.13,46111,17.69,74296.8,-2.07,-34.83,-35.13,0,*5E
1494792491.4,46112,17.69,74298.5,-2.07,-34.59,-34.95,0,*55
1494792492.66,46113,17.69,74298.3,-2.07,-34.59,-34.83,0,*53
1494792493.9,46114,17.69,74300.3,-2.05,-34.35,-34.59,0,*5B
1494792495.1,46115,17.69,74302.5,-2.05,-34.07,-34.41,0,*52
1494792496.34,46116,17.69,74302.3,-2.05,-34.53,-34.77,0,*55
1494792497.56,46117,17.69,74302.3,-2.05,-34.71,-35.01,0,*54